Location: Ay?beleni
(36.6500°N, 30.3000°E)
Time: 03:58:58
(UTC+00:00)

Centaur AC-112 - Pass Details

Date: 16 October 2021
Orbit: 286 x 20310 km, 26.6° (Epoch: 07 December)

Event Time Altitude Azimuth Distance (km) Brightness Sun altitude
Rises 16:39:31 0° 263° (W) 10,397 10.5 -16.5°
Reaches altitude 10° 16:51:03 10° 258° (WSW) 6,247 8.8 -18.8°
Maximum altitude 17:02:51 34° 200° (SSW) 1,614 4.7 -21.2°
Enters shadow 17:04:49 24° 156° (SSE) 1,494 4.2 -21.6°
